Weather History for Oakland, CA

Change the Weather History Date:

Thursday, November 1, 2012

  Actual Average Record
Temperature  
Mean Temperature 59 °F 58 °F  
Max Temperature 67 °F 67 °F 81 °F (2011)
Min Temperature 51 °F 49 °F 39 °F (2003)
Degree Days  
Heating Degree Days 6 7  
Month to date heating degree days 6 7  
Since 1 July heating degree days 415 359  
Cooling Degree Days 0 0  
Month to date cooling degree days 0 0  
Year to date cooling degree days 59 137  
Growing Degree Days 10 (Base 50)    
Moisture  
Dew Point 57 °F    
Average Humidity 84    
Maximum Humidity 100    
Minimum Humidity 68    
Precipitation  
Precipitation 0.26 in 0.08 in 1.27 in (2008)
Month to date precipitation 0.26 0.08  
Year to date precipitation 13.03 14.78  
Since 1 July precipitation 1.09 1.56  
Sea Level Pressure  
Sea Level Pressure 30.03 in    
Wind  
Wind Speed 4 mph (SW)    
Max Wind Speed 15 mph    
Max Gust Speed 20 mph    
Visibility 8 miles    
Events Rain    
T = Trace of Precipitation, MM = Missing Value Source: NWS Daily Summary

Daily Weather History Graph

Daily Weather History Graph

Search for Another Location

Airport:

Trip Planner

Search our weather history database for the weather conditions in past years. The results will help you decide how hot, cold, wet, or windy it might be!

Date:

Astronomy

Nov. 01, 2012 Rise Set
Actual Time 7:34 AM PDT 6:09 PM PDT
Civil Twilight 7:07 AM PDT 6:36 PM PDT
Nautical Twilight 6:36 AM PDT 7:07 PM PDT
Astronomical Twilight 6:05 AM PDT 7:38 PM PDT
Moon 8:13 PM PDT (11/1) 10:09 AM PDT (11/1)
Length of Visible Light 11h 29m
Length of Day
10h 34m
Waning Gibbous, 92% of the Moon is Illuminated
Nov 1
Waning Gibbous
Nov 6
Last Quarter
Nov 13
New
Nov 20
First Quarter
Nov 28
Full

Hourly Weather History & Observations

Time (PDT) Temp. Dew Point Humidity Pressure Visibility Wind Dir Wind Speed Gust Speed Precip Events Conditions
12:17 AM 60.8 °F 57.2 °F 88% 30.02 in 3.0 mi Calm Calm - 0.02 in Rain Light Rain
12:36 AM 60.8 °F 57.2 °F 88% 30.01 in 5.0 mi Calm Calm - 0.03 in Rain Light Rain
12:48 AM 60.8 °F 57.2 °F 88% 30.02 in 6.0 mi Calm Calm - 0.03 in Rain Light Rain
12:53 AM 60.1 °F 57.9 °F 93% 30.01 in 6.0 mi East 3.5 mph - 0.04 in Rain Light Rain
1:02 AM 59.0 °F 57.2 °F 94% 30.02 in 7.0 mi East 3.5 mph - 0.00 in Rain Light Rain
1:47 AM 60.8 °F 57.2 °F 88% 30.01 in 3.0 mi Calm Calm - 0.08 in Rain Rain
1:53 AM 59.0 °F 57.9 °F 96% 30.01 in 4.0 mi East 3.5 mph - 0.10 in Rain Rain
2:20 AM 59.0 °F 57.2 °F 94% 30.02 in 6.0 mi ESE 4.6 mph - 0.06 in Rain Heavy Rain
2:29 AM 59.0 °F 57.2 °F 94% 30.02 in 5.0 mi East 5.8 mph - 0.07 in Rain Rain
2:53 AM 57.9 °F 57.0 °F 97% 30.01 in 6.0 mi ESE 5.8 mph - 0.09 in Rain Rain
3:00 AM 59.0 °F 57.2 °F 94% 30.01 in 6.0 mi Calm Calm - 0.02 in Rain Light Rain
3:11 AM 57.2 °F 57.2 °F 100% 30.01 in 5.0 mi ESE 4.6 mph - 0.04 in Rain Rain
3:53 AM 57.9 °F 57.0 °F 97% 30.01 in 10.0 mi ESE 5.8 mph - 0.06 in Rain Light Rain
4:53 AM 59.0 °F 57.9 °F 96% 30.00 in 10.0 mi Calm Calm - 0.01 in   Overcast
5:33 AM 59.0 °F 57.2 °F 94% 30.02 in 7.0 mi Calm Calm - 0.00 in Rain Light Rain
5:53 AM 59.0 °F 57.0 °F 93% 30.01 in 10.0 mi Calm Calm - 0.00 in   Overcast
6:53 AM 59.0 °F 57.9 °F 96% 30.02 in 10.0 mi Calm Calm - N/A   Overcast
7:53 AM 59.0 °F 57.9 °F 96% 30.03 in 10.0 mi Calm Calm - N/A   Overcast
8:53 AM 60.1 °F 57.9 °F 93% 30.04 in 10.0 mi Calm Calm - N/A   Overcast
9:53 AM 62.6 °F 59.0 °F 88% 30.05 in 10.0 mi Calm Calm - N/A   Mostly Cloudy
10:34 AM 62.6 °F 59.0 °F 88% 30.05 in 10.0 mi SSE 3.5 mph - N/A   Mostly Cloudy
10:53 AM 62.6 °F 59.0 °F 88% 30.05 in 10.0 mi SSW 4.6 mph - N/A   Mostly Cloudy
11:53 AM 63.0 °F 59.0 °F 87% 30.05 in 10.0 mi SSW 4.6 mph - N/A   Mostly Cloudy
12:26 PM 64.4 °F 59.0 °F 83% 30.05 in 10.0 mi SW 5.8 mph - N/A   Mostly Cloudy
12:53 PM 64.9 °F 59.0 °F 81% 30.04 in 10.0 mi WSW 4.6 mph - N/A   Mostly Cloudy
1:53 PM 66.2 °F 57.2 °F 73% 30.04 in 10.0 mi West 4.6 mph - N/A   Scattered Clouds
2:53 PM 66.0 °F 57.0 °F 73% 30.03 in 10.0 mi West 6.9 mph - N/A   Partly Cloudy
3:24 PM 66.2 °F 57.2 °F 73% 30.03 in 10.0 mi West 8.1 mph - N/A   Scattered Clouds
3:53 PM 66.0 °F 57.0 °F 73% 30.04 in 10.0 mi WSW 9.2 mph - N/A   Scattered Clouds
4:53 PM 66.0 °F 55.9 °F 70% 30.03 in 10.0 mi West 10.4 mph - N/A   Scattered Clouds
5:53 PM 64.0 °F 55.0 °F 73% 30.02 in 10.0 mi West 9.2 mph - N/A   Scattered Clouds
6:53 PM 61.0 °F 55.0 °F 81% 30.04 in 10.0 mi WNW 8.1 mph - N/A   Partly Cloudy
7:17 PM 60.8 °F 53.6 °F 77% 30.04 in 10.0 mi WNW 5.8 mph - N/A   Partly Cloudy
7:53 PM 59.0 °F 55.0 °F 87% 30.04 in 10.0 mi Calm Calm - N/A   Partly Cloudy
8:53 PM 57.0 °F 53.1 °F 87% 30.05 in 10.0 mi Calm Calm - N/A   Partly Cloudy
9:53 PM 55.9 °F 53.1 °F 90% 30.05 in 10.0 mi Calm Calm - N/A   Partly Cloudy
10:53 PM 57.0 °F 50.0 °F 77% 30.06 in 10.0 mi NW 5.8 mph - N/A   Partly Cloudy
11:53 PM 55.9 °F 50.0 °F 80% 30.07 in 10.0 mi NNW 4.6 mph - N/A   Partly Cloudy